ABS-2 (39508 NORAD) Tracking and Keplerian Element Data

This shows tracking and keplerian element data for the satellite.

Feedback or suggestion? Click here.




ElementValue
Catalog39508
NameABS-2
Epoch Orbit4028
Epoch Day34.70253292
Epoch Year2025
RAAN252.6103
Inclination0.0108
Eccentricity0.000345
Argument of Perigee57.8943
Mean Anonmoly151.4095
Mean Motion1.00271123
Decay Rate-8.1E-07
L11 39508U 14006A 25034.70253292 -.00000081 00000+0 00000+0 0 9998
L22 39508 0.0108 252.6103 0003450 57.8943 151.4095 1.00271123 40289



Live tracking and technical data element details for ABS-2 (NORAD 39508). ABS-2 can be tracked NOW for your location showing map with azimuth and elevation plus other details from your city location.







IsCatalogInMostPopularTable: catalog: 39508, numindb: 536
Update: records affected: 1



GetName: 39508 ABS-2

Hit Count: updated at: Thu, 22 May 2025 04:39:50 GMT